Reflectivity
-20 -20 -20 -20 -20 -20 -20 -20 -20 -20 -16 7 -20 -20 -20 -20 -20 -20 -20 -20 -20 -20 -20 -20 -20 -20 -20 -20 -20 -20 -20 -20 -20 -20 -20 -20 -20 -20 -20 -20 -20 -20 -20 -20
-20 -20 -20 -20 -20 -20 -20 -20 -20 -20 -20 -20 5 -20 -20 -20 -20 -20 -20 -20 -20 -20 -20 -20 -20 -20 -20 -20 -20 -20 -20 -20 -20 -20 -20 -20 -20 -20 -20 -20 -20 -20 -20 -20
-20 -20 -20 -20 -20 -20 -20 -20 -20 -20 -20 -20 -20 -20 -16 -18 -20 -20 -20 -20 -20 -20 -20 -20 -20 -20 -20 -20 -20 -20 -20 -20 -20 -20 -20 -20 -20 -12 -20 -20 -20 -20 -7 3
-20 -20 -20 -20 -20 -20 -20 -20 -20 -20 -20 -20 -20 -20 -20 -20 -20 -20 -20 -20 -20 -20 -20 -20 -20 -20 -20 -20 -20 -20 -20 -20 -20 -20 -20 -20 -20 -20 -20 -20 -20 -1 11 -16
-20 -20 -20 -20 -20 -20 -20 -20 -20 -20 -20 -20 -20 -20 -20 -20 -20 -20 -20 -20 -20 -20 -20 -20 -20 -20 -20 -20 -20 -20 -20 -20 -20 -20 -20 -20 -20 -20 -20 -20 -20 -8 -20 -20
-20 -20 -20 -20 -20 -20 -20 -18 -20 -20 -20 -20 -20 -20 -20 -20 -20 -20 -20 -20 -20 -20 -20 -20 -20 -20 -20 -20 -20 -20 -20 -20 -20 -20 -20 -20 -20 -20 -20 -20 -20 -20 -20 -20
-20 -20 -20 -20 -20 -20 -4 -20 -20 -20 -20 -20 -20 -20 -20 -20 -20 -20 -20 -20 -20 -20 -20 -20 -20 -20 -20 -20 -20 -20 -20 -20 -20 -20 -20 -20 -17 -20 -20 -20 -20 -20 -20 -20
-20 -16 -20 -20 -20 -20 -20 -18 -20 -20 -20 -20 -20 -20 -20 -20 -20 -20 -20 -20 -20 -20 -20 -20 -20 -20 -20 -10 -20 -20 -20 -5 -20 -20 -20 -20 -20 -20 -20 -20 -20 -20 -20 -20
-20 -20 -20 -20 -20 -20 -20 -20 -20 -17 -20 -20 -20 -20 -20 -20 -20 -20 -20 -20 -20 -20 -20 -20 -20 -20 -20 -19 -20 -20 -20 -18 -20 -20 -20 -20 -20 -20 -20 -20 -20 -20 -20 -20
-20 -20 -20 -20 -20 -20 -20 -20 -20 -20 -20 -20 -20 -20 -20 -20 -20 -20 -20 -20 -20 -20 -20 -20 -20 -20 -20 -20 -20 -20 -20 -20 -20 -20 -20 -20 -20 -20 -20 -20 -20 -20 -20 -20
-20 -20 -20 -20 -20 -20 -20 -20 -20 -20 -20 -20 -19 -20 -20 -20 -20 -19 -20 -20 -20 -20 -20 -20 -20 -20 -20 -20 -20 -20 -20 -20 -20 -20 -20 -20 -20 -20 -20 -20 -20 -20 -20 -20
-20 -20 -20 -20 -20 -20 -20 -20 -20 -20 -20 -14 -20 -20 -20 -20 -20 -20 -20 -20 -20 -20 -20 -20 -20 -20 -20 -20 -20 -20 -20 -20 -20 -20 -20 -20 -20 -20 -20 -20 -20 -20 -20 -20
-20 -20 -20 -20 -20 -20 -20 -20 -20 -20 -20 -20 -20 -20 -20 -20 -20 -20 -20 -20 -20 -20 -20 -20 -20 -20 -20 -20 -20 -20 -20 -20 -20 -20 -20 -20 -20 -20 -20 -20 -20 -20 -20 -20
-20 -20 -20 -20 -20 -20 -20 -20 -20 -20 -20 -20 -20 -20 -20 -20 -20 -20 -20 -20 -20 -20 -20 -20 -20 -20 -20 -20 -20 -20 -20 -20 -20 -20 -20 -20 -20 -20 -20 -20 -20 -20 -20 -20
-20 -20 -20 -20 -20 -20 -20 -20 -20 -20 -20 -20 -20 -20 -20 -20 -20 -20 -20 -20 -20 -20 -20 -20 -20 -20 -20 -20 -20 -20 -20 -20 -20 -20 -20 -20 -20 -20 -20 -20 -20 -20 -20 -20
-20 -20 -20 -20 -20 -20 -20 -20 -20 -20 -20 -20 -20 -20 -20 -20 -20 -20 -20 -20 -20 -20 -20 -20 -12 -20 -20 -20 -20 -20 -20 -20 -20 -20 -20 -20 -20 -20 -20 -20 -20 -20 -20 -20
-20 -20 -20 -20 -20 -20 -20 -20 -20 -20 -20 -20 -20 -20 -20 -20 -20 -20 -20 -9 -20 4 -8 -12 -20 14 -20 -20 -20 -20 -20 -20 -20 -20 -20 -20 -20 -20 -20 -20 -20 -20 -20 -20
-20 -3 -19 -13 -20 -20 -20 -20 -20 -20 -20 -20 -20 -20 -20 -20 -20 -20 -20 -19 -20 -20 -20 -20 -20 -20 -8 -15 -18 -20 -20 -20 -20 -20 -20 -20 -20 -20 -20 -20 -20 -20 -20 -20
-15 -12 -19 -20 -20 -20 -20 -20 -20 -20 -20 -20 -20 -20 -20 -20 -20 -20 -20 -14 -20 -20 -20 -7 6 -3 -20 -4 16 10 -20 -20 -12 -16 -20 -20 -20 -20 -20 -20 -20 -20 -20 -20
-20 -20 -20 -20 -20 -20 -20 -20 -18 -19 -13 -20 -20 -20 -20 -20 -20 -20 -20 -20 -14 -20 -1 -18 -20 -14 14 11 15 10 -2 -19 -12 -5 -18 -20 -20 -20 -11 -18 -20 -20 -20 -20
-20 -20 -20 -20 -19 -15 -3 -10 -19 -20 -18 -12 -19 -20 -14 -20 11 6 2 -20 -20 -20 -20 -20 -20 -20 -1 15 25 12 13 -8 6 6 7 2 -5 -4 9 1 -20 -20 -20 -20
18 -20 -20 -20 -20 -20 -17 -17 -20 -20 -20 -18 -18 -19 -11 -20 -4 8 13 -20 -20 -20 -20 -20 -20 -18 -8 22 20 1 2 11 9 13 11 9 12 17 14 7 -13 -8 -15 -20
6 -11 -2 -6 -20 -20 -20 -17 -19 -20 -20 -17 -16 -17 -19 -18 -13 -13 -20 -20 -20 -20 -20 -20 -20 -10 7 14 4 -12 1 14 13 14 16 16 17 19 13 8 8 2 -20 -20
-20 -20 -20 -20 -20 -20 -20 -19 -19 -20 -20 -20 -18 -19 -18 -19 -18 -16 -19 5 11 16 19 13 27 25 24 14 -8 -4 9 16 18 18 20 18 15 15 7 11 3 -15 -20 -20
-20 -20 -20 -20 -20 -20 -20 -20 -20 -20 -20 -20 -20 -20 -18 -1 3 1 2 5 4 8 -5 23 20 17 7 5 5 10 12 15 17 18 19 14 18 14 11 5 -0 -20 -15 -14
-20 -20 -20 -20 -20 -20 -20 -20 -20 -20 -20 -20 -20 -20 -20 -20 -19 -4 -9 9 11 9 9 11 18 23 18 11 7 -4 -16 -8 11 11 10 13 15 11 7 -17 -19 -2 -14 -20
-20 -20 -20 -20 -20 -20 -20 -20 -20 -20 -20 -20 -20 -20 -20 -20 -20 -20 -15 -9 -17 1 4 0 4 18 3 -10 -20 -19 -16 -17 -16 -15 -9 8 10 -6 -2 -20 -20 -20 -20 -20
Wind_Speed
2 4 4 5 4 7 4 4 5 1 3 11 13 11 9 8 7 8 8 7 8 7 6 6 6 5 5 4 5 5 6 6 7 6 6 6 6 7 8 7 7 7 7 7
2 3 3 3 6 7 5 4 4 4 4 7 10 6 6 10 9 9 8 8 7 7 7 7 7 6 5 5 5 5 6 7 6 6 7 7 7 8 9 8 8 8 9 8
3 3 0 5 10 9 6 5 6 6 7 2 6 9 8 8 8 9 8 7 8 8 6 6 6 6 6 5 5 6 6 6 6 8 8 8 7 8 8 8 10 9 7 7
2 2 1 6 1 8 9 8 8 4 4 4 5 4 5 5 8 8 8 8 7 7 7 6 5 6 6 5 6 5 6 7 8 8 7 7 8 8 8 8 7 4 5 5
3 3 4 2 3 5 7 7 7 8 5 4 4 4 0 2 1 6 6 6 6 8 6 6 6 7 8 6 6 6 6 7 8 7 7 6 7 7 8 6 5 3 3 4
2 2 4 2 2 1 3 4 5 8 7 6 4 2 4 4 4 6 6 7 8 7 6 7 5 6 7 6 6 6 6 7 7 6 6 7 7 6 5 5 4 2 2 4
2 2 6 1 3 3 3 4 2 5 5 6 4 4 3 6 4 5 6 8 7 6 6 6 5 7 7 6 6 6 8 7 7 6 7 7 6 4 3 2 3 3 4 3
3 3 6 4 2 3 3 3 4 3 3 4 5 6 6 6 6 8 9 7 6 6 6 5 6 7 7 6 6 8 8 7 6 7 6 6 6 4 4 4 5 4 4 3
7 6 4 5 2 3 3 4 3 4 3 5 6 5 6 5 6 7 8 6 5 6 7 5 5 6 8 7 8 9 9 9 7 6 5 5 5 5 3 4 4 3 3 3
3 1 5 6 2 2 2 3 4 3 4 4 5 6 7 7 7 8 8 7 6 7 7 6 6 6 5 8 9 9 9 8 6 5 5 5 4 4 4 4 3 3 3 3
3 5 2 4 4 5 5 4 3 1 1 3 4 6 7 7 8 8 9 7 7 8 6 7 7 7 8 9 10 9 8 6 6 5 5 4 3 4 4 2 4 4 3 3
4 3 3 1 4 4 5 4 3 2 4 3 3 5 7 6 7 8 8 8 7 8 8 9 8 8 9 10 10 7 6 5 5 4 4 4 4 3 6 5 7 7 7 5
5 3 3 6 5 2 5 3 2 2 3 4 4 2 5 5 6 9 8 10 9 10 9 10 9 10 10 10 9 8 7 6 4 6 5 5 4 4 4 1 4 4 4 4
7 6 3 1 4 4 4 2 1 2 3 3 3 2 4 5 6 7 9 10 9 9 9 10 10 11 11 10 6 7 7 13 5 5 5 5 5 4 4 4 3 2 5 4
5 4 5 6 4 4 3 2 3 3 4 4 3 2 3 6 7 7 7 9 9 9 11 11 12 11 11 9 8 7 6 5 5 5 4 6 5 4 4 4 4 3 2 4
5 6 5 4 3 2 1 4 3 3 4 4 4 5 5 5 6 6 7 10 11 11 12 13 13 11 9 8 8 6 6 12 10 5 4 4 4 4 4 4 4 4 3 3
4 2 3 3 3 2 2 1 2 2 4 5 6 7 6 6 5 6 7 9 10 10 12 14 14 11 11 11 10 7 6 6 12 5 5 5 5 5 4 4 4 4 4 4
5 4 4 3 2 3 3 2 3 4 4 4 5 6 6 6 6 6 8 7 6 6 10 11 10 10 12 12 11 7 7 8 6 7 5 5 5 5 5 4 4 4 4 3
6 5 5 4 4 4 4 4 5 6 6 6 6 7 7 7 7 6 6 8 9 10 10 7 13 14 12 13 13 8 8 8 8 6 6 9 6 5 5 5 5 5 4 4
6 4 4 4 4 3 4 4 5 6 6 6 6 6 7 6 6 6 7 10 11 5 6 8 11 12 12 13 19 9 9 10 9 8 7 6 6 6 5 8 6 5 5 4
5 5 5 5 5 5 5 5 6 6 8 6 6 6 6 7 5 3 3 4 3 6 6 10 10 9 9 11 14 9 9 9 9 8 8 8 7 6 6 6 5 5 5 4
2 2 2 3 3 3 4 4 4 5 5 5 5 5 5 5 4 3 3 4 2 7 4 4 7 12 9 17 9 9 10 10 9 7 7 7 7 7 7 6 6 5 5 4
2 2 2 3 3 4 3 3 4 4 5 6 5 5 4 4 3 3 3 2 2 4 2 3 7 13 18 11 8 9 10 11 10 9 9 7 7 6 6 6 6 5 5 5
0 2 2 3 4 4 4 4 5 4 4 4 5 5 4 4 4 1 3 6 7 6 4 4 7 14 17 8 8 8 9 9 8 8 8 11 5 6 5 5 5 5 5 7
1 2 1 3 3 2 3 4 4 4 4 5 5 4 4 2 2 3 3 3 8 6 3 8 12 13 8 6 6 7 7 7 8 7 8 6 6 6 6 5 6 5 5 5
1 1 2 2 1 2 3 3 3 3 3 5 4 4 5 3 3 3 3 5 4 5 3 3 3 4 4 5 6 6 6 6 8 7 8 6 7 7 6 5 5 5 4 5
2 3 1 2 1 2 3 3 3 3 4 4 5 4 5 5 5 5 6 3 3 3 3 2 2 4 4 5 6 6 5 5 8 7 7 6 6 6 6 6 5 4 4 4
Wind_Direction
110 111 125 186 191 172 148 210 148 245 136 191 173 169 184 194 170 162 168 166 161 154 155 152 137 124 109 91 89 102 94 90 85 76 69 64 57 58 58 54 59 62 68 64
327 159 163 199 222 189 206 234 267 271 282 180 189 184 161 172 171 174 175 172 157 152 157 154 148 143 126 113 102 101 101 98 98 91 83 75 64 67 70 71 67 60 57 70
254 197 24 301 217 197 190 192 160 193 220 87 161 184 168 177 178 177 176 164 161 161 153 147 150 142 138 129 112 102 100 101 96 94 91 88 88 84 82 70 63 55 60 72
193 65 268 241 146 198 179 200 206 238 221 191 146 117 127 156 175 183 167 164 160 147 133 135 125 119 120 118 107 105 111 111 105 107 103 103 101 94 84 74 71 70 52 50
132 210 275 239 228 157 165 246 203 202 184 101 113 99 322 74 97 163 155 144 136 141 136 137 133 132 124 118 119 109 98 103 111 118 116 107 95 99 87 87 95 107 79 72
139 144 225 221 198 112 101 221 290 171 188 146 141 150 257 145 92 110 115 123 127 128 129 124 133 132 128 131 123 116 117 120 119 119 112 105 108 98 83 120 145 116 96 111
271 232 287 211 150 71 181 214 109 121 149 152 171 193 141 134 132 139 124 129 127 135 140 135 132 121 118 127 130 128 122 118 114 113 114 112 109 111 119 120 90 90 108 94
216 239 276 144 98 204 191 99 115 95 83 105 121 133 146 154 157 140 136 130 137 133 131 128 123 128 136 140 138 128 122 121 122 125 129 130 139 138 150 140 136 131 115 84
170 215 228 185 164 145 141 148 137 132 132 133 147 181 168 174 172 153 155 152 148 139 134 126 129 146 154 154 146 139 140 146 148 142 134 156 157 165 161 164 156 160 146 144
41 287 197 169 114 93 91 124 115 120 141 165 173 175 178 172 174 165 168 165 156 148 147 148 147 157 150 155 150 150 153 152 144 149 172 190 188 178 164 167 163 157 161 177
262 292 234 235 151 149 107 93 96 55 254 232 191 193 180 174 179 172 168 165 162 162 161 162 162 160 161 165 164 165 161 153 165 174 157 140 141 158 146 181 172 166 178 171
224 244 145 167 143 129 110 104 75 27 332 313 253 209 175 182 178 169 171 166 165 168 164 164 168 169 174 179 179 167 160 160 171 152 150 143 123 106 120 122 112 125 142 156
179 143 116 136 126 105 112 93 52 350 308 305 308 218 172 173 181 176 169 172 173 175 166 166 174 186 184 186 190 168 162 166 168 164 164 163 162 153 150 126 127 139 145 146
152 123 129 90 161 115 115 99 51 326 292 277 286 303 169 170 171 176 181 184 177 168 172 176 183 190 188 190 174 167 164 180 173 173 175 172 176 182 168 179 196 225 229 198
150 98 126 130 107 95 91 50 16 336 313 323 313 285 188 178 192 200 177 174 176 176 177 184 191 196 184 176 166 168 168 175 170 181 185 187 176 174 179 192 201 188 186 226
96 91 87 87 87 79 76 46 37 346 345 325 323 308 281 223 205 193 186 176 179 189 188 190 201 192 179 170 167 168 174 185 180 179 183 173 176 174 183 199 201 203 210 222
126 129 80 87 55 22 28 344 297 298 323 330 314 310 289 277 226 194 192 192 198 195 193 195 201 189 183 181 176 180 174 176 189 183 183 183 179 188 192 192 204 211 219 212
95 99 71 51 5 337 336 342 323 315 299 314 308 300 296 263 243 218 199 195 194 205 203 201 192 183 184 181 180 179 179 185 183 187 180 181 191 188 193 198 206 210 223 231
67 66 37 14 353 324 318 328 331 319 306 297 288 276 264 255 248 234 186 190 203 215 217 188 182 178 185 184 177 176 184 185 187 183 182 195 197 189 193 198 205 210 210 218
61 58 54 24 13 3 342 348 330 318 316 323 314 301 291 276 246 220 192 212 211 213 176 185 180 191 188 183 184 186 187 189 191 190 180 190 193 196 199 206 206 206 209 215
79 52 40 26 13 10 5 348 335 334 328 319 317 315 309 307 300 225 188 226 231 208 191 189 191 196 187 180 189 191 191 185 189 187 189 194 195 199 200 202 205 204 210 213
77 32 6 6 354 353 351 349 338 328 329 333 329 323 322 317 328 303 252 225 258 222 180 188 203 201 194 187 188 191 193 198 197 189 192 191 191 195 201 198 205 210 213 211
331 354 3 7 328 305 330 355 339 338 338 334 330 327 324 310 304 299 295 334 276 254 195 204 214 209 204 196 193 189 191 190 191 196 204 198 190 194 196 201 204 205 204 213
22 12 345 347 343 28 7 339 334 326 322 305 328 330 329 329 318 334 324 308 296 279 249 218 227 224 211 200 197 192 191 190 190 187 199 199 174 203 200 200 204 200 206 226
320 304 23 9 7 359 333 324 332 342 342 337 331 319 306 295 285 308 308 305 308 288 260 253 238 233 219 197 190 191 193 191 188 180 190 186 192 211 207 197 201 201 205 208
284 297 300 291 275 337 332 339 338 338 349 340 321 318 331 306 293 296 285 298 297 299 280 249 226 219 197 182 184 186 187 187 188 184 187 185 201 212 200 200 204 206 193 204
269 268 346 328 306 346 330 332 341 330 337 317 310 323 328 326 330 337 331 310 298 295 294 278 270 241 187 182 180 180 183 186 191 184 180 187 203 205 199 199 197 195 195 202